Flag for Sweden Weather past 2 weeks in Malmö, Sweden

Now
52 °F

Clear.


Feels Like: 48 °F
Forecast: 45 / 62 °F
Wind: 10 mph from East

Location: Malmo / Sturup


UV Index: 3 (Moderate)

Visibility: 10 mi


Pressure: 30.18 "Hg

Humidity: 58%

Dew point: 37 °F

Location of MalmöLocation

Historic Weather in Malmö

°F

Malmö temperature yesterday

Maximum temperature yesterday: 52 °F (at 2:50 PM)
Minimum temperature yesterday: 37 °F (at 5:50 AM)
Average temperature yesterday: 45 °F

Past Weeks' High & Low Weather Summary

 TemperatureHumidityPressure
High61 °F (Apr 19, 12:50 PM)100% (Apr 5, 8:20 PM)30.42 "Hg (Apr 5, 8:20 PM)
Low28 °F (Apr 16, 3:50 AM)33% (Apr 16, 1:20 PM)29.47 "Hg (Apr 14, 8:20 AM)
Average45 °F83%29.95 "Hg
* Reported Apr 4 9:20 PM — Apr 19 9:20 PM, Malmö, Weather by CustomWeather, © 2014

Note: Actual official high and low records may vary slightly from our data, if they occured in-between our weather recording intervals... More about our weather records

Advertising

Historic Weather Conditions — Data for Previous 24 hours

 ConditionsComfort  
Time TempWeatherWind HumidityBarometerVisibility
9:20 PM
Apr 19
50 °FClear.8 mph62%30.18 "Hg10 mi
8:50 PM52 °FSunny.7 mph58%30.18 "Hg10 mi
8:20 PM54 °FSunny.8 mph58%30.18 "Hg10 mi
7:50 PM55 °FSunny.10 mph55%30.18 "Hg10 mi
7:20 PM57 °FSunny.10 mph55%30.18 "Hg10 mi
6:50 PM59 °FSunny.12 mph51%30.18 "Hg10 mi
6:20 PM59 °FSunny.15 mph51%30.18 "Hg10 mi
5:50 PM61 °FSunny.13 mph48%30.18 "Hg10 mi
5:20 PM61 °FSunny.14 mph45%30.18 "Hg10 mi
4:50 PM61 °FSunny.14 mph42%30.18 "Hg10 mi
4:20 PM61 °FSunny.15 mph42%30.21 "Hg10 mi
3:50 PM61 °FSunny.13 mph42%30.21 "Hg10 mi
3:20 PM61 °FSunny.15 mph39%30.21 "Hg10 mi
2:50 PM61 °FSunny.14 mph42%30.21 "Hg10 mi
2:20 PM61 °FSunny.14 mph42%30.21 "Hg10 mi
1:50 PM61 °FSunny.13 mph48%30.24 "Hg10 mi
1:20 PM61 °FSunny.10 mph55%30.24 "Hg10 mi
12:50 PM61 °FSunny.12 mph52%30.24 "Hg10 mi
12:20 PM59 °FSunny.12 mph59%30.24 "Hg10 mi
11:50 AM59 °FSunny.9 mph59%30.24 "Hg10 mi
11:20 AM57 °FSunny.12 mph63%30.24 "Hg10 mi
10:50 AM57 °FSunny.9 mph67%30.24 "Hg10 mi
10:20 AM55 °FSunny.8 mph67%30.21 "Hg10 mi
9:50 AM54 °FSunny.8 mph72%30.21 "Hg10 mi
9:20 AM52 °FSunny.5 mph77%30.21 "Hg10 mi
8:50 AM50 °FPassing clouds.3 mph76%30.21 "HgN/A
8:20 AM48 °FSunny.6 mph82%30.21 "Hg10 mi
7:50 AM45 °FSunny.2 mph87%30.18 "Hg10 mi
7:20 AM39 °FSunny.5 mph93%30.18 "Hg10 mi
6:50 AM37 °FClear.5 mph93%30.18 "Hg10 mi
6:20 AM37 °FClear.7 mph87%30.18 "Hg10 mi
5:50 AM39 °FClear.9 mph87%30.15 "Hg10 mi
5:20 AM41 °FClear.6 mph81%30.15 "Hg10 mi
4:50 AM41 °FClear.8 mph81%30.15 "Hg10 mi
4:20 AM41 °FClear.7 mph81%30.15 "Hg10 mi
3:50 AM41 °FClear.9 mph87%30.15 "Hg10 mi
3:20 AM39 °FFog.6 mph93%30.15 "Hg5 mi
2:50 AM39 °FFog.6 mph93%30.12 "Hg4 mi
2:20 AM39 °FFog.3 mph93%30.12 "Hg4 mi
1:50 AM41 °FFog.6 mph93%30.12 "Hg4 mi
1:20 AM41 °FFog.6 mph93%30.12 "Hg6 mi
12:50 AM41 °FFog.6 mph93%30.12 "Hg6 mi
12:20 AM41 °FFog.10 mph93%30.09 "Hg6 mi
11:50 PM
Apr 18
41 °FFog.9 mph100%30.09 "Hg3 mi
11:20 PM41 °FFog.10 mph93%30.07 "Hg4 mi
10:50 PM41 °FClear.7 mph93%30.07 "Hg10 mi
10:20 PM41 °FClear.6 mph93%30.04 "Hg10 mi
Weather by CustomWeather, © 2014

See weather overview